{"data":{"norad_id":63216,"epoch":"2026-05-24T23:04:33.536064Z","epoch_age_seconds":75463,"freshness":"FRESH","line1":"1 63216U 25052G   26144.96149926  .00007779  00000+0  29873-3 0  9996","line2":"2 63216  97.3913  39.0410 0002264 154.2397 205.8955 15.26725306 66412","mean_motion":15.26725306,"eccentricity":0.0002264,"inclination_deg":97.3913,"raan_deg":39.041,"arg_perigee_deg":154.2397,"mean_anomaly_deg":205.8955,"bstar":0.00029873,"rev_number":6641,"period_min":94.319521287872,"perigee_km":484.0555989985,"apogee_km":487.1635034369,"semimajor_km":6863.7465512177,"source":"CELESTRAK","updated_at":"2026-05-25T13:38:03.576089Z"}}